Airfield :
LOGIN :

Register | Disclaimer

   EN    FR    IT 

 










Legend :    VFR   Marginal VFR   IFR   Intensive IFR   Very Intensive IFR
Visi :
Ceiling :
>= 8 km
>= 3000ft
5 to 8 km
1000 to 3000 ft
1500m to 5 km
500 to 1000 ft
800 to 1500m
200 to 500 ft
< 800m
< 200 ft
Symbols :   Thunderstorms  Fog  Heavy snow  Heavy precipitations  Wind > 20 kt
SIGMETs :     Misc.  Thunderstorms  Icing  Turbulence  Mountain Waves  Volcanic Ashes







- Airport Elevation : 1674 ft
- IATA code : BRN


LSZB - Bern Belp

CURRENT METAR :
  • 220020Z AUTO VRB01KT 9999 SCT042 BKN080 11/06 Q1021

EXPIRED METARs :
  • 212350Z AUTO VRB02KT 9999 FEW060 BKN090 BKN110 11/06 Q1022
  • 212320Z AUTO VRB02KT 9999 FEW070 SCT090 10/07 Q1022
  • 212250Z AUTO 22008KT 190V260 9999 -RA FEW050 BKN090 11/08 Q1022 REDZ
  • 212220Z AUTO VRB02KT 9999 DZ FEW050 SCT070 BKN090 10/08 Q1022
  • 212150Z AUTO VRB02KT 9999 -RA BKN050 SCT070 10/08 Q1022

Expired Forecast.
ATIS : +41 22 417 40 76
No reported NOTAMs for that airfield.



MET'MAP, your aeronautical weather chart ! - Copyright ORBIFLY December 2007 - Disclaimer

ORBIFLY MET'MAP TEAM :

Programming & Development : Alexandra Zaïnal
Concept & Development : Baudouin d'Aumeries
Co-Development & Prog : Marc-Olivier Méhu
Technical & hardware support : Manuel Goepfert

Contact : metmap@orbifly.com




SOURCES & CREDITS :

   NOAA